OSCAR 7 (AO-7) 1 07530U 74089B 25351.92191186 -.00000029 00000+0 10659-3 0 9991 2 07530 101.9964 358.2441 0012378 116.8505 304.0499 12.53694332337809 PHASE 3B (AO-10) 1 14129U 83058B 25351.74130077 -.00000089 00000+0 00000+0 0 9992 2 14129 26.0452 250.3258 6064658 65.0289 344.8583 2.05873801291751 UOSAT 2 (UO-11) 1 14781U 84021B 25351.89667651 .00001279 00000+0 13780-3 0 9990 2 14781 97.7817 314.8451 0009196 67.8435 292.3758 14.90158707230122 LUSAT (LO-19) 1 20442U 90005G 25351.77924156 .00000133 00000+0 64202-4 0 9997 2 20442 98.8957 3.4877 0011937 23.1947 336.9773 14.34046760876392 EYESAT A (AO-27) 1 22825U 93061C 25351.75366560 .00000101 00000+0 55605-4 0 9998 2 22825 98.7141 54.0328 0007304 272.8134 87.2212 14.30878520681054 ITAMSAT (IO-26) 1 22826U 93061D 25351.71688814 .00000119 00000+0 61856-4 0 9998 2 22826 98.7089 53.8957 0007870 254.4891 105.5423 14.31299530681355 RADIO ROSTO (RS-15) 1 23439U 94085A 25351.92418000 -.00000049 00000+0 -17538-3 0 9998 2 23439 64.8159 236.3663 0149895 37.5331 323.5946 11.27582664275461 JAS-2 (FO-29) 1 24278U 96046B 25351.87465403 -.00000037 00000+0 -55512-6 0 9996 2 24278 98.5460 220.3208 0349375 206.6346 151.6470 13.53262925448640 TECHSAT 1B (GO-32) 1 25397U 98043D 25351.90493753 .00000075 00000+0 52740-4 0 9999 2 25397 98.9923 335.2363 0001907 49.1157 311.0186 14.24378586425523 ISS (ZARYA) 1 25544U 98067A 25351.82928960 .00007629 00000+0 14328-3 0 9994 2 25544 51.6309 117.2752 0003168 263.8701 96.1927 15.49640803543642 PCSAT (NO-44) 1 26931U 01043C 25351.76541893 .00000143 00000+0 84458-4 0 9998 2 26931 67.0515 353.4816 0007419 269.7199 90.3053 14.31857619264479 SAUDISAT 1C (SO-50) 1 27607U 02058C 25351.39286381 .00001651 00000+0 21481-3 0 9994 2 27607 64.5541 331.2167 0072439 295.7298 63.6342 14.82410639237508 CUTE-1 (CO-55) 1 27844U 03031E 25351.57814299 .00000324 00000+0 15972-3 0 9998 2 27844 98.6762 357.4188 0009534 359.6280 0.4890 14.24183443165822 CUBESAT XI-IV (CO-57) 1 27848U 03031J 25351.47671991 .00000278 00000+0 14155-3 0 9991 2 27848 98.6791 357.1768 0009765 17.6835 342.4682 14.23490862165522 MOZHAETS 4 (RS-22) 1 27939U 03042A 25352.02049424 .00001313 00000+0 21268-3 0 9990 2 27939 98.3360 166.3603 0012243 119.8902 4.0680 14.72986230188870 CUBESAT XI-V 1 28895U 05043F 25351.40415762 .00001462 00000+0 24129-3 0 9992 2 28895 98.2719 138.5607 0015265 64.5076 295.7708 14.71918269 75005 CUTE-1.7+APD II (CO-65) 1 32785U 08021C 25351.68477250 .00005656 00000+0 38073-3 0 9996 2 32785 97.8081 324.8433 0007829 290.5969 69.4418 15.07103756957832 SEEDS II (CO-66) 1 32791U 08021J 25351.88918659 .00013927 00000+0 55355-3 0 9990 2 32791 97.7442 337.2123 0001944 180.1538 179.9698 15.25425135959580 YUBILEINY (RS-30) 1 32953U 08025A 25351.94168412 .00000023 00000+0 93592-4 0 9994 2 32953 82.5018 108.1875 0018823 349.5977 10.4711 12.43172168797174 KKS-1 (KISEKI) 1 33499U 09002H 25351.87185331 .00001411 00000+0 18281-3 0 9990 2 33499 98.1182 266.5429 0008455 148.7008 211.4710 14.82451716909321 SWISSCUBE 1 35932U 09051B 25351.69864920 .00001095 00000+0 22833-3 0 9992 2 35932 98.4147 251.3681 0008027 61.0644 299.1360 14.61971711862634 BEESAT-1 1 35933U 09051C 25351.68631654 .00000924 00000+0 19708-3 0 9995 2 35933 98.4076 251.3575 0006536 73.5254 286.6664 14.61289942862676 ITUPSAT1 1 35935U 09051E 25351.65713655 .00000840 00000+0 18503-3 0 9995 2 35935 98.4166 250.7021 0008761 81.9694 278.2499 14.60044081862248 XIWANG-1 (HOPE-1) 1 36122U 09072B 25351.90960475 .00000333 00000+0 98728-3 0 9993 2 36122 100.3773 303.8523 0006976 290.3471 69.6893 13.16434665769153 O/OREOS (USA 219) 1 37224U 10062C 25351.78685502 .00002272 00000+0 22572-3 0 9997 2 37224 71.9698 130.9468 0013376 46.1957 314.0316 14.92704070 89563 JUGNU 1 37839U 11058B 25351.63912226 .00000434 00000+0 87033-4 0 9997 2 37839 19.9625 331.3415 0018434 230.8701 285.2644 14.13698706733307 SRMSAT 1 37841U 11058D 25351.60850188 .00000399 00000+0 73051-4 0 9990 2 37841 19.9720 78.4836 0011885 7.0463 21.2980 14.11513105732132 STRAND-1 1 39090U 13009E 25351.47402573 .00000320 00000+0 12210-3 0 9995 2 39090 98.3821 171.2442 0009603 58.1017 302.1103 14.37009120670960 ZACUBE-1 (TSHEPISOSAT) 1 39417U 13066B 25351.39749824 .00003280 00000+0 27002-3 0 9998 2 39417 97.8056 307.9496 0042001 132.1904 228.2897 14.99124350653477 GOMX-1 1 39430U 13066Q 25351.87539161 .00001958 00000+0 30482-3 0 9993 2 39430 97.6588 198.6792 0129358 300.0133 58.8289 14.68609599643295 CUBEBUG-2 (LO-74) 1 39440U 13066AA 25351.56788106 .00003439 00000+0 33426-3 0 9992 2 39440 97.8708 295.2332 0058016 269.4523 90.0047 14.92015584649893 FUNCUBE-1 (AO-73) 1 39444U 13066AE 25351.90398344 .00006707 00000+0 45536-3 0 9991 2 39444 97.8070 315.2456 0040989 98.9256 261.6614 15.06040842652348 UWE-3 1 39446U 13066AG 25351.84087866 .00002808 00000+0 25521-3 0 9990 2 39446 97.8482 302.1944 0049837 202.2067 157.6996 14.95146450650462 UNISAT-6 1 40012U 14033C 25351.86109106 .00002658 00000+0 29880-3 0 9995 2 40012 97.7616 143.2012 0045284 306.9449 52.7623 14.86835567619202 DUCHIFAT-1 1 40021U 14033M 25351.64618218 .00031850 00000+0 77242-3 0 9991 2 40021 98.0781 23.9742 0007043 18.8207 341.3297 15.40977542627603 QB50P1 1 40025U 14033R 25351.44292485 .00007398 00000+0 40468-3 0 9997 2 40025 98.0962 345.3369 0010959 120.5378 239.6935 15.14542045625483 LILACSAT-2 1 40908U 15049K 25351.91822935 .00012822 00000+0 27465-3 0 9996 2 40908 97.4908 17.4603 0007772 177.7385 182.3900 15.44878433567707 FOX-1A (AO-85) 1 40967U 15058D 25351.84352342 .00003467 00000+0 32005-3 0 9994 2 40967 64.7748 122.0178 0134314 128.0290 233.3036 14.89703002 86540 CAS-2T & KS-1Q 1 41847U 16066G 25351.75004849 .00000913 00000+0 13895-3 0 9997 2 41847 98.4034 64.4416 0342909 319.9483 37.6871 14.44142648478608 RADFXSAT (FOX-1B) 1 43017U 17073E 25351.88363608 .00008529 00000+0 40404-3 0 9999 2 43017 97.4948 217.9632 0159208 232.5829 126.0822 15.08970483438016 DIWATA-2B 1 43678U 18084H 25351.99064683 .00002371 00000+0 19855-3 0 9993 2 43678 98.1018 175.6641 0007606 32.9721 327.1974 14.99463821389055 ES'HAIL 2 1 43700U 18090A 25351.77439037 .00000169 00000+0 00000+0 0 9992 2 43700 0.0185 10.7126 0000956 272.4132 108.1010 1.00271095 25854 FOX-1CLIFF (AO-95) 1 43770U 18099N 25351.72397384 .00009797 00000+0 43167-3 0 9992 2 43770 97.4676 47.9700 0008215 265.8339 94.1958 15.21994485385573 ITASAT 1 43786U 18099AE 25351.71396059 .00006044 00000+0 31626-3 0 9995 2 43786 97.4321 41.9219 0011899 264.3071 95.6805 15.16143928385383 JY1SAT (JO-97) 1 43803U 18099AX 25351.14082849 .00013184 00000+0 49994-3 0 9991 2 43803 97.4424 48.9433 0006230 185.0296 175.0881 15.26982803385788 UWE-4 1 43880U 18111E 25351.71962302 .00020426 00000+0 60951-3 0 9998 2 43880 97.5864 268.3823 0007203 253.9993 106.0456 15.34643656382848 TIANYAN 01 1 44881U 19093C 25351.95233976 .00000574 00000+0 71552-4 0 9996 2 44881 97.7758 63.4673 0012967 328.4091 31.6345 14.86113001324490 RS-44 & BREEZE-KM R/B 1 44909U 19096E 25351.70497230 .00000003 00000+0 -31004-4 0 9994 2 44909 82.5214 100.3095 0217221 208.4542 150.4561 12.79746119279139 SALSAT 1 46495U 20068K 25351.90731101 .00007607 00000+0 29490-3 0 9998 2 46495 97.8779 339.4587 0009327 208.5805 151.4922 15.26411719287676 XW-3 (CAS-9) 1 50466U 21131B 25351.92686010 .00000340 00000+0 11922-3 0 9991 2 50466 98.5051 80.3219 0003110 286.8272 73.2575 14.41118630209003 GREENCUBE (IO-117) 1 53109U 22080E 25351.40093974 -.00000003 00000+0 00000+0 0 9994 2 53109 70.1587 1.4598 0009167 326.8109 33.1975 6.42583171 80381 STRATOSAT-TK 1 (RS52S) 1 57167U 23091B 25351.86320540 .00293929 00000+0 15479-2 0 9996 2 57167 97.5188 64.7638 0005170 306.5138 53.5653 15.79876198137682 UMKA 1 (RS40S) 1 57172U 23091G 25351.88311510 .00005580 00000+0 27522-3 0 9998 2 57172 97.5341 46.3258 0014351 36.8313 323.3904 15.18238350136470 CUBESX-HSE 3 (RS42S) 1 57178U 23091N 25351.99202214 .00011053 00000+0 43275-3 0 9991 2 57178 97.5374 50.7220 0012373 19.0506 341.1192 15.25913600136742 MONITOR-3 (RS58S) 1 57180U 23091Q 25351.93513884 .00008906 00000+0 37504-3 0 9997 2 57180 97.5367 49.3452 0013336 23.4640 336.7202 15.23517172136650 MONITOR-4 (RS57S) 1 57182U 23091S 25351.92435497 .00009303 00000+0 39074-3 0 9997 2 57182 97.5362 49.2957 0013343 23.9959 336.1897 15.23587761136657 MONITOR-2 (RS39S) 1 57184U 23091U 25351.96595743 .00004831 00000+0 24897-3 0 9992 2 57184 97.5366 46.4061 0012406 29.3740 330.8188 15.16787923136462 SVYATOBOR 1 (RS60S) 1 57187U 23091X 25351.94656291 .00006933 00000+0 29850-3 0 9998 2 57187 97.5373 49.9751 0010527 17.1908 342.9683 15.22878448136699 VIZARD-METEO (RS38S) 1 57189U 23091Z 25351.94002184 .00012997 00000+0 45623-3 0 9999 2 57189 97.5365 53.4117 0008306 5.2988 354.8339 15.29517525136925 NANOZOND 1 (RS49S) 1 57190U 23091AA 25351.96393095 .00055037 00000+0 85095-3 0 9996 2 57190 97.5286 62.0909 0004280 338.4176 21.6896 15.53906283137514 POLYTECH-UNIVERSE 3 (R*) 1 57191U 23091AB 25351.94942881 .00004507 00000+0 23103-3 0 9996 2 57191 97.5338 45.9026 0017276 43.6204 316.6391 15.16954982136456 UTMN 2 (RS27S) 1 57203U 23091AP 25351.98350377 .00010503 00000+0 40034-3 0 9992 2 57203 97.5366 52.1198 0009112 9.1043 351.0359 15.26851783136845 KUZGTU 1 (RS47S) 1 57217U 23091AV 25351.97865064 .00010089 00000+0 40626-3 0 9996 2 57217 97.5347 49.9829 0012609 21.7875 338.3896 15.24994623136711 SONATE-2 1 59112U 24043Q 25351.89838435 .00022799 00000+0 47837-3 0 9995 2 59112 97.5329 128.3425 0009179 143.9203 216.2667 15.45346989 99774 MESAT1 1 60209U 24125G 25351.83571249 .00026812 00000+0 53773-3 0 9992 2 60209 97.2515 202.2119 0014540 159.1191 201.0656 15.46562368 81393 OOV-CUBE (TUBSAT-30) 1 60240U 24128F 25351.87425099 .00002479 00000+0 19942-3 0 9998 2 60240 61.9938 137.3103 0058349 95.2949 265.4803 15.01640295 78876 COLIBRI-S (RS67S) 1 61746U 24199M 25351.95371346 .00016142 00000+0 41281-3 0 9995 2 61746 97.3259 219.8874 0008748 209.3993 150.6761 15.39477700109450 HORS 3 (RS81S) 1 61753U 24199U 25351.93764058 .00022216 00000+0 50728-3 0 9992 2 61753 97.3230 220.5035 0006759 212.9274 147.1553 15.42859428109508 HORS 4 (RS82S) 1 61754U 24199V 25351.86675683 .00025114 00000+0 53954-3 0 9994 2 61754 97.3213 220.8715 0006813 211.7256 148.3583 15.44647627109522 HORIZON (RS59S) 1 61757U 24199Y 25351.96157640 .00048466 00000+0 74035-3 0 9994 2 61757 97.3217 223.1394 0006144 186.0835 174.0345 15.54258014109679 ARCTICSAT 1 (RS74S) 1 61762U 24199AD 25351.96286446 .00042640 00000+0 68999-3 0 9997 2 61762 97.3227 222.9818 0006431 182.8612 177.2605 15.52686006109667 SIT-2086 1 61764U 24199AF 25351.94077407 .00026500 00000+0 60194-3 0 9998 2 61764 97.3228 221.2607 0006756 202.4194 157.6759 15.42981345106394 MORDOVIA-IOT (RS50S) 1 61765U 24199AG 25351.93787911 .00141771 00000+0 11171-2 0 9994 2 61765 97.3118 225.7858 0004727 148.0601 212.0949 15.70997977106705 RUZAEVKA 390 (RS44S) 1 61766U 24199AH 25351.93873166 .00082816 00000+0 91742-3 0 9990 2 61766 97.3171 224.7313 0004752 163.7891 196.3521 15.62702146106638 HYPERVIEW 1G (RS66S) 1 61772U 24199AP 25351.91392159 .00035237 00000+0 66724-3 0 9990 2 61772 97.3208 221.4148 0008169 213.2120 146.8619 15.48255252106417 ALTAIR (RS65S) 1 61779U 24199AW 25351.96256466 .00008429 00000+0 26717-3 0 9993 2 61779 97.3261 217.7039 0012489 233.0301 126.9798 15.32886669109315 ASRTU-1 (AO-123) 1 61781U 24199AY 25351.89792763 .00009281 00000+0 30153-3 0 9999 2 61781 97.3250 217.2915 0012975 234.8538 125.1489 15.32058790106136 TUSUR GO (RS78S) 1 61782U 24199AZ 25351.96442140 .00051367 00000+0 80276-3 0 9992 2 61782 97.3174 222.2258 0006961 206.5626 153.5272 15.53608890106477 SAMSAT-IONOSPHERE (RS7*) 1 61784U 24199BB 25351.93606522 .00024767 00000+0 55742-3 0 9991 2 61784 97.3224 220.2127 0009993 220.9550 139.0948 15.43240569109489 RTU MIREA 1 (RS51S) 1 61785U 24199BC 25351.94922184 .00026375 00000+0 57039-3 0 9996 2 61785 97.3219 220.4888 0009607 218.1716 141.8853 15.44418121106356 HADES-R 1 62690U 25009CK 25351.51430377 .00144472 00000+0 17305-2 0 9994 2 62690 97.3881 74.3245 0001224 263.6183 96.4935 15.60466474 51526 TEVEL2-4 1 63213U 25052D 25351.69588709 .00014128 00000+0 53131-3 0 9998 2 63213 97.4111 243.4905 0004890 52.6904 307.4780 15.27244756 42349 TEVEL2-5 1 63214U 25052E 25351.63606947 .00014159 00000+0 53373-3 0 9990 2 63214 97.4109 243.4181 0004842 53.1928 306.9754 15.27166935 42338 TEVEL2-6 1 63215U 25052F 25351.64352877 .00014634 00000+0 55229-3 0 9992 2 63215 97.4112 243.4137 0004932 53.0540 307.1150 15.27119441 42336 TEVEL2-1 1 63217U 25052H 25351.68725951 .00013298 00000+0 50721-3 0 9992 2 63217 97.4085 243.2638 0005258 60.9543 299.2222 15.26788533 42337 TEVEL2-3 1 63218U 25052J 25351.68638820 .00013460 00000+0 51302-3 0 9998 2 63218 97.4084 243.2686 0005303 61.8390 298.3384 15.26811440 42334 TEVEL2-2 1 63219U 25052K 25351.68802388 .00013346 00000+0 50903-3 0 9990 2 63219 97.4085 243.2640 0005270 61.3206 298.8562 15.26790180 42330 TEVEL2-9 1 63237U 25052AD 25351.65594251 .00013579 00000+0 54136-3 0 9994 2 63237 97.4148 242.9325 0009220 68.3398 291.8821 15.25281330 42291 TEVEL2-7 1 63238U 25052AE 25351.67034506 .00012579 00000+0 50407-3 0 9995 2 63238 97.4148 242.9199 0009419 68.3972 291.8269 15.25127286 42294 TEVEL2-8 1 63239U 25052AF 25351.67606524 .00012433 00000+0 49866-3 0 9997 2 63239 97.4151 242.9101 0009342 68.6308 291.5926 15.25101909 42294 HADES-ICM 1 63492U 25052BN 25351.70074554 .00046625 00000+0 11620-2 0 9990 2 63492 97.4087 245.2715 0011586 62.3353 297.9067 15.40014955 42460 INNOSAT 16 (RS92S7) 1 64878U 25155C 25351.87692807 .00003446 00000+0 15016-3 0 9996 2 64878 97.4333 315.1942 0013028 101.5270 258.7430 15.22798889 53050 GEOSCAN 6 (RS92S6) 1 64879U 25155D 25351.85706514 .00009683 00000+0 38283-3 0 9996 2 64879 97.4335 315.5442 0010715 96.4220 263.8239 15.25635913 53076 GEOSCAN 1 (RS92S1) 1 64880U 25155E 25351.91148321 .00009871 00000+0 38707-3 0 9991 2 64880 97.4336 315.6299 0010645 96.6524 263.5927 15.25907153 53081 239ALFEROV (RS61S) 1 64881U 25155F 25351.86997268 .00012114 00000+0 46168-3 0 9992 2 64881 97.4344 315.7061 0010458 96.5100 263.7330 15.26802034 53083 GEOSCAN 2 (RS92S2) 1 64890U 25155Q 25351.87497574 .00009536 00000+0 37044-3 0 9995 2 64890 97.4333 315.6669 0009970 86.2354 274.0024 15.26235736 53082 GEOSCAN 5 (RS92S5) 1 64891U 25155R 25351.89867400 .00011313 00000+0 42689-3 0 9994 2 64891 97.4338 315.7981 0009162 100.9727 259.2543 15.27161010 53093 GEOSCAN 4 (RS92S4) 1 64892U 25155S 25351.89553303 .00011621 00000+0 43749-3 0 9999 2 64892 97.4340 315.8060 0009192 101.4472 258.7800 15.27230464 53092 GEOSCAN 3 (RS92S3) 1 64893U 25155T 25351.86287283 .00014547 00000+0 53430-3 0 9996 2 64893 97.4335 315.8433 0008986 102.9926 257.2318 15.27992745 53096 INNOSAT 3 (RS92S0) 1 64894U 25155U 25351.83228071 .00022982 00000+0 77791-3 0 9992 2 64894 97.4319 316.0244 0008976 103.3610 256.8632 15.30565152 53104